Miscellaneous Local Product
Issued by NWS North Platte, NE

Current Version | Previous Version | Text Only | Print | Product List | Glossary On
Versions: 1 2 3 4 5 6 7 8 9 10 11 12 13 14 15 16 17 18 19 20 21 22 23 24 25 26 27 28 29 30 31 32 33 34 35 36 37 38 39 40 41 42 43 44 45 46 47 48 49 50
000
AXUS43 KLBF 311510
MISLBF


WESTERN AND NORTH CENTRAL NEBRASKA HOURLY WEATHER ROUNDUP
NATIONAL WEATHER SERVICE NORTH PLATTE NE
900 AM CST SAT JAN 31 2015

***STATIONS NOT REPORTING VARIABLES SUCH AS SKY/WEATHER OR
PRESSURE ARE PROVIDED BY THE NEBRASKA DEPARTMENT OF
ROADS...RAWS...AND APRS NETWORKS...AND ARE NOT UNDER
NATIONAL WEATHER SERVICE QUALITY CONTROL***

...OBSERVATIONS IN AND NEAR THE EASTERN PANHANDLE OF NEBRASKA...

CITY           SKY/WX    TMP DP  RH WIND       PRES   REMARKS
PINE RIDGE     CLOUDY    29  24  82 NE5       29.99R WCI  24
CHADRON        CLOUDY    27  23  85 CALM      29.99S
ALLIANCE       CLOUDY    32  27  81 N6        29.93S WCI  26
SIDNEY         LGT SNOW  31  29  92 N7        29.91F FOG     WCI  24
WHITECLAY        N/A     25  23  89 S5          N/A  WCI  20
CRESCENT LAKE    N/A     31  30  96 CALM        N/A
LISCO            N/A     34  30  86 CALM        N/A
LEWELLEN         N/A     32  30  93 CALM        N/A
$$

...OBSERVATIONS IN NORTH CENTRAL NEBRASKA...

CITY           SKY/WX    TMP DP  RH WIND       PRES   REMARKS
VALENTINE      CLOUDY    29  25  85 NE13      30.02R WCI  19
THEDFORD       FOG       35  34  98 SE3       29.97F VSB<1/4
AINSWORTH      CLOUDY    30  28  90 E8        30.01R WCI  23
O`NEILL        CLOUDY    34  33  96 N5        30.04S WCI  30
ORD            CLOUDY    34  31  88 S5        30.02F WCI  30
BROKEN BOW     CLOUDY    34  31  88 SE5       29.99F WCI  30
BROWNLEE         N/A     32  32 100 N7          N/A  WCI  26
VALENTINE NWR    N/A     30  30  99 NE3         N/A
SPRINGVIEW       N/A     30  26  86 NE7         N/A  WCI  23
BREWSTER         N/A     35  34  94 CALM        N/A
ROSE             N/A     36  36  99 CALM        N/A
NEWPORT          N/A     32  31  95 N10         N/A  WCI  24
SARGENT          N/A     34  31  90 S3          N/A
COMSTOCK         N/A     36  35  96 S5          N/A  WCI  32
CHAMBERS         N/A     35  32  90 S3          N/A
EWING            N/A     36  34  92 S3          N/A
$$

...OBSERVATIONS IN SOUTHWEST NEBRASKA AND FAR NORTHEAST COLORADO...

CITY           SKY/WX    TMP DP  RH WIND       PRES   REMARKS
WRAY           FOG      N/A N/A N/A N7        29.91S VSB 1/4
IMPERIAL       FOG       33  31  92 E7        29.93F VSB<1/4 WCI  27
OGALLALA       FOG       33  33  99 E5        29.95R VSB 1/2 WCI  28
NORTH PLATTE   CLOUDY    33  30  88 SE7       29.96F WCI  27
MCCOOK         FOG       34  32  92 E7        29.96S VSB 3/4 WCI  28
LEXINGTON      LGT SNOW  33  32  96 S8        29.99F WCI  26
BRADY            N/A     32  30  92 CALM        N/A
GOTHENBURG       N/A     32  30  94 SE5         N/A  WCI  27
CALLAWAY         N/A     32  32 100 S10         N/A  WCI  24
$$

...NORTH PLATTE AREA...

CITY           SKY/WX    TMP DP  RH WIND       PRES   REMARKS
AIRPORT        CLOUDY    33  30  88 SE7       29.96F WCI  27
DOWNTOWN         N/A     32  30  92 E3          N/A
$$

...SOME WEATHER OBSERVATIONS FROM AROUND THE REGION...

CITY           SKY/WX    TMP DP  RH WIND       PRES   REMARKS
DENVER         MOCLDY    31  26  82 SW5       29.91R WCI  26
LARAMIE        FLURRIES  27  25  92 E3        29.87F
CHEYENNE       LGT SNOW  30  25  81 N9        29.89F WCI  22
SCOTTSBLUFF    CLOUDY    34  26  72 CALM      29.94S
RAPID CITY     CLOUDY    26  23  88 E6        30.01S WCI  19
PIERRE         CLOUDY    23  22  96 E16       30.14R FOG     WCI  10
WINNER         FOG       27  25  92 NE12      30.08S VSB<1/4 WCI  17
SIOUX FALLS    CLOUDY    26  24  92 NE18      30.14R FOG     WCI  13
OMAHA          LGT RAIN  37  34  89 S10       30.16S WCI  30
GRAND ISLAND   LGT SNOW  32  31  96 S9        30.06F FOG     WCI  24
KANSAS CITY    RAIN      35  34  96 SE8       30.23S FOG     WCI  29
WICHITA        LGT RAIN  35  30  82 SE8       30.14F WCI  29
HAYS           CLOUDY    34  27  75 SE6       30.03S WCI  29
LIBERAL        CLOUDY    36  30  80 S16G22    30.02S WCI  26
GOODLAND       CLOUDY    35  33  92 S5        29.90R WCI  31
$$



USA.gov is the U.S. government's official web portal to all federal, state and local government web resources and services.